Regional Weather Roundup
Issued by NWS Grand Forks, ND

Home | Current Version | Previous Version | Text Only | Print | Product List | Glossary Off
Versions: 1 2 3 4 5 6 7 8 9 10 11 12 13 14 15 16 17 18 19 20 21 22 23 24 25 26 27 28 29 30 31 32 33 34 35 36 37 38 39 40 41 42 43 44 45 46 47 48 49 50

000
ASUS43 KFGF 260931
RWRFGF
PRAIRIE TO PINES  WEATHER ROUNDUP
NATIONAL WEATHER SERVICE EASTERN NORTH DAKOTA/GRAND FORKS ND
300 AM CST FRI DEC 26 2014

 **SATELLITE DATA USED TO AUGMENT SKY COVER AT AUTOMATED STATIONS**
 *****  WEATHER ACROSS EASTERN NORTH DAKOTA  *****

CITY           SKY/WX    TMP DP  RH WIND       PRES   REMARKS
GRAND FORKS    CLOUDY    24  19  81 N15G22    30.05R WCI  11
GRAND FRKS AFB CLOUDY    24  22  92 N10       30.06R WCI  14
GRAND FRKS NWS   N/A     25 N/A N/A VRB6        N/A  WCI  18
DEVILS LAKE    CLOUDY    21  16  79 N9        30.04S WCI  11
FARGO          CLOUDY    25  20  81 N14       30.03R WCI  13
WAHPETON ARPT  CLOUDY    27  23  86 N15       30.01R WCI  15
$$

 ***** WEATHER ACROSS CENTRAL AND WESTERN NORTH DAKOTA  *****

CITY           SKY/WX    TMP DP  RH WIND       PRES   REMARKS
BISMARCK       CLOUDY    23  18  81 N12       30.08R WCI  12
MINOT          CLEAR      6   1  80 NW13      30.09R WCI -10
JAMESTOWN      CLOUDY    24  19  81 N14       30.04R WCI  12
MINOT AFB      CLEAR      4   2  93 NW12      30.10R WCI -12
GARRISON         N/A      9   5  84 NW8       30.09R WCI  -3
WILLISTON      FLURRIES  14   9  80 NW12      30.11S WCI   0
DICKINSON      CLOUDY    18  11  74 NW14      30.03R WCI   4
HETTINGER      CLOUDY    19  14  81 NW10      30.05R WCI   7
$$

 *****  OTHER AIRPORT OBSERVATIONS IN OUR AREA  *****

CITY           SKY/WX    TMP DP  RH WIND       PRES   REMARKS
WALHALLA         N/A     23  23 100 NW6       30.08R WCI  16
GRAFTON AIRPOR NOT AVBL
VALLEY CITY AR CLOUDY    23  23 100 NE12      30.04R WCI  12
CANDO          CLOUDY    19  16  86 N8        30.06R WCI   9
CAVALIER APRT  CLOUDY    25  18  74 NW7       30.08R WCI  17
GWINNER        CLOUDY    27  27 100 N12       30.04R WCI  16
ROLLA          CLOUDY    14  14 100 N15       30.05R WCI  -1
 ***** THE ABOVE OBSERVATIONS ARE NON NWS ARE NOT QUALITY
       CONTROLLED AND MAY MIS-REPORT RAIN FOR SNOW...
$$

  *****  WEATHER ACROSS NORTHERN MINNESOTA  *****

CITY           SKY/WX    TMP DP  RH WIND       PRES   REMARKS
FLAG ISLAND    CLOUDY    21  18  86 NW17G24   30.00R WCI   7
WARROAD        MOCLDY    21  18  86 NW7       30.03R WCI  13
ROSEAU         CLOUDY    25  19  80 N5        30.02R WCI  19
HALLOCK        FLURRIES  23  21  93 N8        30.06R WCI  14
THF RVR FALLS  CLOUDY    25  19  80 N8        30.03R WCI  16
BAUDETTE       CLOUDY    23  18  81 NW7       29.99R WCI  15
WASKISH        LGT SNOW  25  21  86 CALM      29.99R
CROOKSTON      CLOUDY    23  19  86 N10       30.07R WCI  12
STEPHEN NDAWN    N/A     25  16  68 N5          N/A  WCI  19
GREENBUSH NDAW   N/A     23  21  93 NW8         N/A  WCI  14
$$
  *****  WEATHER ACROSS CENTRAL AND WEST MINNESOTA  *****

CITY           SKY/WX    TMP DP  RH WIND       PRES   REMARKS
FOSSTON        CLOUDY    21  19  93 N9        30.01R WCI  11
BEMIDJI        CLOUDY    24  20  87 N6        29.98R WCI  17
PARK RAPIDS    CLOUDY    26  20  77 N8        29.95R WCI  18
ELBOW LAKE     CLOUDY    26  23  89 N10       29.97R WCI  15
WADENA         CLOUDY    25  21  86 N7        29.95S WCI  17
DETROIT LAKES  CLOUDY    27  25  93 N6        29.99R WCI  20
MOORHEAD       CLOUDY    25  25 100 N17       30.04R WCI  11
FERGUS FALLS   CLOUDY    27  21  80 N7        30.01R WCI  19
MORRIS MN      CLOUDY    27  25  93 N14       29.96R WCI  15
STAPLES        CLOUDY    25  23  93 N8        29.95R WCI  16
$$
  *****  WEATHER ELSEWHERE ACROSS MINNESOTA  *****

CITY           SKY/WX    TMP DP  RH WIND       PRES   REMARKS
DULUTH         CLOUDY    29  23  78 N9        29.90R WCI  20
INTRNTL FALLS  CLOUDY    26  23  88 NW8       29.96R WCI  18
ELY            CLOUDY    27  21  80 CALM      29.93S
CLOQUET        CLOUDY    28  25  86 N6        29.92R WCI  22
WHEATON        CLOUDY    25  21  86 NW14G20   30.02R WCI  13
BRAINERD       CLOUDY    27  22  81 N13       29.94R WCI  16
HIBBING        CLOUDY    28  21  75 N6        29.94R WCI  22
ALEXANDRIA     CLOUDY    26  22  84 N15       29.94R WCI  14
SAINT CLOUD    CLOUDY    32  27  81 N7        29.91R
MINNEAPOLIS    CLOUDY    32  30  92 N7        29.88R
$$

  *****  WEATHER ACROSS SOUTH DAKOTA  *****

CITY           SKY/WX    TMP DP  RH WIND       PRES   REMARKS
SIOUX FALLS    CLOUDY    29  26  89 N12       29.91R WCI  19
BROOKINGS      NOT AVBL
WATERTOWN      FLURRIES  24  21  88 N12       29.94R WCI  13
HURON          FLURRIES  26  23  88 N13       29.98R WCI  15
SISSETON         N/A     25  24  96 N16       29.99R WCI  12
ABERDEEN       CLOUDY    26  23  88 N10       30.04R WCI  16
MITCHELL       CLOUDY    27  24  89 N12       29.98R WCI  17
PIERRE         CLOUDY    25  21  85 NW16      30.02R WCI  12
MOBRIDGE       CLOUDY    26  21  81 N12       30.03R WCI  16
RAPID CITY     CLOUDY    21  17  84 N16       30.00R WCI   7
$$

  *****  SOME WEATHER IN NEARBY STATES *****

CITY           SKY/WX    TMP DP  RH WIND       PRES   REMARKS
GLASGOW MT     CLOUDY    18  13  80 E13       30.06S WCI   5
GREAT FALLS MT CLOUDY    19  14  81 SW7       29.94S WCI  10
CHEYENNE WY    CLOUDY    13   9  84 N6        29.82R WCI   4
SCOTTSBLUFF NE CLOUDY    18  14  84 N8        29.94S WCI   8
OMAHA NE       CLOUDY    33  31  92 N16G25    29.83R WCI  23
DES MOINES IA  CLEAR     39  30  70 S10       29.81R
DAVENPORT IA   CLOUDY    42  32  67 S16G25    29.90S
CHICAGO IL     MOCLDY    37  32  82 S12       29.98F
EAU CLAIRE WI  CLOUDY    30  27  88 NE6       29.87R WCI  24
LA CROSSE WI   PTCLDY    27  24  89 CALM      29.86R
$$

  *****  SOME NATIONAL WEATHER *****

CITY           SKY/WX    TMP DP  RH WIND       PRES   REMARKS
LA GUARDIA NY  CLEAR     42  29  59 W8        30.14F
RALEIGH NC     PTCLDY    32  29  88 CALM      30.28R
ATLANTA GA     MOCLDY    35  31  85 CALM      30.23F
NEW ORLEANS LA PTCLDY    42  39  89 CALM      30.17F
OKLAHOMA CITY  MOCLDY    49  34  56 S14       29.86R
ALBUQUERQUE NM CLOUDY    32  31  96 S13       29.75R WCI  22
SALT LAKE CITY CLOUDY    26  23  88 N3        29.85R
LOS ANGELES CA CLEAR     52  21  29 VRB3      29.93S
BOISE ID       PTCLDY    26  21  81 NW9       30.07R WCI  17
SEATTLE WA     CLOUDY    39  36  89 SE6       30.29R
$$

*** WEATHER ACROSS MANITOBA...SASKATCHEWAN AND ONTARIO ***
                ***ONTARIO***

CITY           SKY/WX    TMP DP  RH WIND       PRES   REMARKS
GERALDTON      CLOUDY    28  27  93 W3        29.86R
THUNDER BAY    CLOUDY    28  27  93 SW5       29.94  WCI  23
SIOUX LOOKOUT  FLURRIES  25  23  93 NW8       29.92R WCI  16
TORONTO        CLOUDY    36  30  80 W13G22    30.14R
BIG TROUT LK   FLURRIES  18  16  93 NW6       29.88R WCI   9
PICKLE LAKE    NOT AVBL
DRYDEN         CLOUDY    23  23 100 NW6       29.93R WCI  16
KENORA         FLURRIES  21  19  93 NW8       29.98R WCI  12
$$
                *** MANITOBA***

CITY           SKY/WX    TMP DP  RH WIND       PRES   REMARKS
BRANDON        MOCLDY     1  -2  85 W15       30.11R WCI -18
DAUPHIN        FLURRIES   3  -2  78 W14       30.15R WCI -15
ISLAND LAKE    LGT SNOW   9   3  78 W10       30.00  WCI  -6
PILOT MOUND      N/A     16  14  93 NW13        N/A  WCI   2
THE PAS        PTCLDY   -11 -17  77 NW8       30.17R WCI -28
THOMPSON       CLEAR    -17 -22  76 W3        30.08R
WINNIPEG       FLURRIES  18  12  79 N15       30.09R WCI   3
CHURCHILL      LGT SNOW  -6  -9  84 NW16      29.99R BLWGSNOWWCI -28
GILLAM         FLURRIES   0  -6  78 NW10      30.00  WCI -17
$$
                ***SASKATCHEWAN***

CITY           SKY/WX    TMP DP  RH WIND       PRES   REMARKS
ESTEVAN        FLURRIES   7   1  78 W13       30.11R WCI  -9
KINDERSLEY     PTCLDY     5   1  85 SE5       30.06  WCI  -4
LLOYDMINSTER   CLOUDY     9   5  85 S5        30.05F WCI   0
PRINCE ALBERT  CLEAR    -18 -22  83 W5        30.17S WCI -31
REGINA         FLURRIES   0  -4  85 NW6       30.13R WCI -12
YORKTON        CLOUDY    -8 -11  84 NW9       30.12R WCI -25
N. BATTLEFORD  CLOUDY     5   1  85 VRB2      30.14S
LA RONGE       CLEAR    -18 -24  76 W6        30.16R WCI -33
SASKATOON      CLOUDY     0  -4  85 NE5       30.16S WCI -10
SWIFT CURRENT  CLOUDY     7   5  92 SE7       30.00S WCI  -5
$$
NOTE: THESE ARE AUTOMATED STATIONS WITH LIMITED QUALITY CONTROL
      "FAIR" INDICATES FEW OR NO CLOUDS BELOW 12,000 FEET WITH NO
      SIGNIFICANT WEATHER AND/OR OBSTRUCTIONS TO VISIBILITY.
      SKY/WX - SKY CONDITION AND SIGNIFICANT WEATHER.
      TMP - AIR TEMPERATURE.    DP   - DEWPOINT TEMPERATURE.
      RH  - RELATIVE HUMIDITY.  PRES - PRESSURE.
      HX  - HEAT INDEX.         WCI  - WIND CHILL INDEX.
$



USA.gov is the U.S. government's official web portal to all federal, state and local government web resources and services.